Location: Jablonov�
(48.3475°N, 17.0995°E)
Time: 15:10:02
(UTC+00:00)

Daily predictions for brighter satellites

Satellite Brightness Start Highest point End
(mag) Time Altitude Azimuth Time Altitude Azimuth Time Altitude Azimuth
USA 245 3.5 19:31:37 10° SSE 19:34:52 53° ENE 19:38:59 10° N
Meteor 2-10 Rocket 3.6 19:30:15 10° NNW 19:35:23 88° WSW 19:40:38 10° S
Cosmos 1758 Rocket 3.9 19:33:23 10° S 19:37:44 51° E 19:42:07 10° NNE
Cosmos 1400 Rocket 3.2 19:33:55 10° N 19:37:49 48° ENE 19:41:37 10° SSE
Cosmos 1626 Rocket 4.2 19:35:00 10° SSW 19:39:24 60° WNW 19:43:51 10° N
SPOT 5 3.9 19:35:23 10° SE 19:39:53 34° ENE 19:44:10 10° N
Lacrosse 5 rocket 3.4 19:38:12 10° W 19:42:03 31° NNW 19:45:44 10° NE
BREEZE-M DEB (TANK) 4.5 19:38:50 10° SSW 19:42:37 17° SSE 19:44:42 10° ESE
Spot 2 Rocket 3.6 19:37:35 10° SSE 19:42:39 73° ENE 19:47:46 10° N
ATLAS 5 CENTAUR R/B 4.0 19:41:52 10° W 19:44:39 21° NW 19:46:27 10° NNE
Cosmos 1745 Rocket 4.0 19:41:25 10° S 19:47:37 87° E 19:53:55 10° N
Landsat 7 3.9 19:43:42 10° SSE 19:48:26 75° ENE 19:53:13 10° N
USA 267 3.9 19:49:12 10° E 19:55:35 56° NNE 20:01:58 10° NW
SPOT 1/Viking Rocket 3.6 19:51:41 10° SSE 19:56:49 75° ENE 20:02:00 10° NNW
Cosmos 1953 Rocket 3.8 19:56:42 10° SSE 20:00:51 48° E 20:05:02 10° NNE
Alouette 2 Rocket 3.6 19:57:12 10° NNW 20:00:58 80° ENE 20:05:59 10° SSE
Cosmos 2322 Rocket 3.2 19:57:10 10° SW 20:02:38 52° WNW 20:08:09 10° NNE
NOSS 7 (D) 4.2 20:01:58 10° SW 20:04:46 64° NW 20:07:25 10° NE
Cosmos 2237 4.4 19:59:31 10° SSW 20:05:16 82° WNW 20:11:03 10° NNE
Cosmos 1328 3.7 20:03:14 10° S 20:07:12 84° E 20:11:12 10° N
Cosmos 2084 4.1 20:03:04 10° NW 20:07:26 52° NE 20:11:33 11° ESE
SAR-Lupe-2 3.6 20:06:04 10° NNE 20:09:39 60° ESE 20:13:11 10° S
Cosmos 1455 3.4 20:08:21 10° NNW 20:11:59 40° W 20:15:37 10° SSW
Cosmos 1825 Rocket 3.7 20:12:07 10° SSW 20:16:33 80° W 20:21:03 10° N
ATLAS CENTAUR R/B 1.4 20:15:48 10° NNW 20:19:28 57° NE 20:22:16 16° SE
Cosmos 1703 3.8 20:17:20 10° SSW 20:21:10 60° WNW 20:25:01 10° N
COSMOS 2428 3.0 20:17:00 10° S 20:22:23 47° ESE 20:27:48 10° NE
Cosmos 1844 4.1 20:18:45 10° NNW 20:24:28 62° WSW 20:29:32 13° S
SL-24 R/B - RUBIN 2 4.4 20:19:20 10° SSW 20:25:24 77° SE 20:32:04 10° NE
Cosmos 2322 3.7 20:20:33 10° SSW 20:26:16 80° ESE 20:32:01 10° NNE
Meteor 1-27 4.3 20:25:12 10° N 20:30:57 77° ENE 20:35:46 15° SSE
Cosmos 1869 4.1 20:27:35 10° N 20:31:20 38° ENE 20:33:50 18° SE
Cosmos 1709 Rocket 4.2 20:26:25 10° SSW 20:32:42 79° W 20:39:07 10° N
NOSS 3-3 (A) 4.0 20:29:12 10° SSW 20:34:54 57° ESE 20:41:19 10° NE
NOSS 3-3 (C) 4.0 20:29:18 10° SSW 20:35:00 57° ESE 20:41:26 10° NE
Terra 1.8 20:31:41 16° SSE 20:35:24 75° ENE 20:40:11 10° N
Cosmos 2237 Rocket 3.3 20:33:12 16° SE 20:36:13 25° ESE 20:40:47 10° NE
CARTOSAT-1 3.8 20:32:57 14° S 20:36:36 69° WSW 20:40:56 10° NNW
Atlas Centaur 2 4.1 20:33:33 10° SW 20:37:13 16° S 20:38:47 15° SSE
Cosmos 2333 4.2 20:32:25 10° SSW 20:38:04 88° WNW 20:43:50 10° NNE
Cosmos 2219 Rocket 2.1 20:32:53 10° SSW 20:38:25 68° ESE 20:44:01 10° NNE
Cosmos 2360 Rocket 3.2 20:35:04 10° SW 20:40:33 49° NW 20:46:04 10° NNE
Cosmos 1538 Rocket 4.0 20:35:53 10° S 20:41:12 69° ESE 20:46:31 10° NNE
Cosmos 2184 Rocket 4.2 20:42:26 16° SSE 20:47:20 56° E 20:53:29 10° NNE
Cosmos 2333 Rocket 2.2 20:42:33 10° SSW 20:48:14 85° ESE 20:54:00 10° NNE
Meteor 2-2 Rocket 4.4 20:43:13 10° N 20:49:01 64° ENE 20:53:04 20° SSE
Cosmos 1315 Rocket 3.0 20:47:19 10° NNW 20:51:25 72° W 20:54:13 20° S
Resurs 01 Rocket 4.3 20:50:20 10° WSW 20:52:11 12° W 20:54:03 10° WNW
ATLAS 2AS CENTAUR R/B 3.4 20:44:56 10° NW 20:52:31 56° NE 20:59:01 12° ESE
Cosmos 2221 2.5 20:55:29 10° N 20:59:53 80° E 21:02:29 24° SSE
ERS-1 Rocket 3.9 20:56:51 13° SSW 21:01:08 43° W 21:05:58 10° NNW
GEOS 3 Rocket 4.4 20:56:54 10° NE 21:02:12 58° NW 21:07:29 10° WSW
USA 215 3.2 20:58:47 10° NE 21:05:23 81° SE 21:11:57 10° SW
Cosmos 1892 2.9 21:07:02 29° SSE 21:08:38 51° E 21:12:21 10° NNE
EO 1 Del DPAF 4.4 21:05:54 10° NE 21:09:06 26° E 21:09:59 23° ESE
Cosmos 2278 Rocket 2.2 21:03:49 10° NNW 21:09:32 85° ENE 21:13:09 23° SSE
ATLAS 5 CENTAUR R/B 3.3 21:08:58 10° WSW 21:12:58 37° NW 21:17:28 10° NNE
Cosmos 158 Rocket 4.3 21:13:11 25° SSE 21:15:26 42° ESE 21:20:03 10° NE
Aureole 2 Rocket 4.3 21:14:02 10° NNE 21:15:52 16° ENE 21:17:00 13° E
Gblst 52 Del rocket 4.4 21:10:31 10° WNW 21:16:12 65° SSW 21:20:33 21° SE
Cosmos 1943 Rocket 4.2 21:12:56 10° N 21:17:14 21° NE 21:21:31 10° E
SPOT 5 4.1 21:13:56 13° SSW 21:17:55 35° W 21:22:20 10° NNW
SL-16 R/B 3.6 21:18:56 19° SE 21:20:36 21° E 21:24:45 10° NE
Lacrosse 5 rocket 3.7 21:18:43 10° NW 21:22:09 24° N 21:25:24 10° ENE
Spot 4 4.2 21:20:00 25° SE 21:22:37 56° ENE 21:27:18 10° N
Cosmos 2056 Rocket 4.1 21:19:01 10° NNW 21:24:19 51° ENE 21:27:39 22° SE
Nadezhda 3 Rocket 4.0 21:18:47 10° N 21:25:12 78° E 21:29:11 25° SSE
Cosmos 2058 2.8 21:25:00 28° S 21:27:07 83° E 21:31:18 10° N
Cosmos 2154 Rocket 4.0 21:23:04 22° S 21:27:09 72° E 21:33:21 10° NNE
Cosmos 1408 2.7 21:29:06 38° SSE 21:30:07 54° E 21:33:39 10° NNE
Meteor 2-17 Rocket 4.4 21:27:25 19° SSW 21:31:58 84° W 21:38:03 10° N
In-Cosmos 22 Rocket 4.1 21:29:55 21° SSW 21:33:34 85° WNW 21:38:55 10° N
Cosmos 2074 Rocket 4.2 21:29:15 15° SSW 21:34:32 68° WNW 21:40:45 10° N
TSX-5 4.0 21:32:42 10° NW 21:36:09 55° WSW 21:37:36 34° S
Cosmos 1076 Rocket 3.5 21:36:08 28° SSW 21:38:21 85° WNW 21:42:39 10° N
USA 267 3.3 21:34:05 22° SE 21:38:31 69° SW 21:45:05 10° WNW
Cosmos 1680 Rocket 3.5 21:35:41 24° S 21:39:00 74° ESE 21:44:19 10° NNE
CZ-4C R/B 4.3 21:39:46 10° NW 21:45:46 33° NNE 21:52:41 10° E
Cosmos 2151 3.2 21:47:19 36° SSE 21:48:46 55° E 21:52:59 10° NNE
EO 1 Delta rocket 4.2 21:44:21 10° NNE 21:49:24 77° E 21:52:50 26° S
SL-8 Rocket 4.5 21:46:21 26° SSE 21:49:28 45° E 21:55:17 10° NNE
COSMOS 2455 4.0 21:44:01 10° NNW 21:49:38 38° NE 21:55:13 10° ESE
Cosmos 923 Rocket 4.3 21:52:20 15° SW 21:56:35 64° WNW 22:01:53 10° NNE
ATLAS CENTAUR R/B 3.2 21:55:45 10° WNW 21:57:54 15° WSW 21:58:26 15° WSW
Cosmos 1825 2.0 21:58:09 45° S 21:59:15 82° E 22:03:03 10° N
ALOS 2 2.8 21:58:03 34° SE 21:59:50 64° ENE 22:04:11 10° N
Cosmos 1340 3.9 21:59:38 25° ESE 22:00:11 26° E 22:03:22 10° NE
Cosmos 1933 4.1 21:57:14 10° N 22:01:04 42° ENE 22:02:24 31° ESE
Cosmos 1980 3.8 21:56:55 16° SW 22:01:31 75° WNW 22:07:12 10° NNE
Cosmos 1151 Rocket 3.6 21:57:24 10° N 22:01:38 48° ENE 22:03:13 32° SE
Cosmos 2369 Rocket 3.8 21:56:59 10° NNW 22:01:49 28° NE 22:06:38 10° ESE
APEX 4.3 22:02:07 10° N 22:04:23 22° NE 22:05:07 20° ENE
Cosmos 44 3.4 22:05:15 38° SE 22:05:59 41° ESE 22:10:09 10° NE
COSMOS 2428 4.2 22:01:39 10° WSW 22:06:49 35° NW 22:12:01 10° NNE
Cosmos 371 Rocket 3.7 22:04:36 10° NNW 22:09:24 55° ENE 22:11:47 28° SE
GP-B 3.2 22:05:27 10° N 22:09:52 62° E 22:11:23 38° SSE
Terra 4.1 22:11:02 10° WSW 22:13:42 15° W 22:16:23 10° NW
NOSS 0 Rocket 4.5 22:08:01 10° SW 22:14:04 58° NW 22:20:11 10° NNE
Cosmos 1624 Rocket 4.1 22:09:35 10° NNW 22:14:47 65° WSW 22:16:57 34° S
NOSS 3-4 (A) 4.0 22:08:46 10° NW 22:15:39 60° WSW 22:19:47 28° SSE
NOSS 3-4 (C) 4.0 22:08:53 10° NW 22:15:46 61° WSW 22:19:55 28° SSE
SL-4 R/B 2.6 22:19:54 24° NNE 22:19:54 24° NNE 22:21:05 10° N
Nimbus 7 Rocket 4.4 22:13:17 10° NNE 22:19:15 80° ESE 22:22:22 30° S
Cosmos 2237 Rocket 2.7 22:14:58 14° SW 22:19:52 60° WNW 22:25:32 10° NNE
Genesis I 3.4 22:18:36 26° SW 22:20:40 69° NW 22:24:33 10° NE
IRIDIUM 106 4.4 22:19:31 34° SSE 22:21:45 70° E 22:26:58 10° N
CREW DRAGON DEMO-1 DEB 3.4 22:22:53 46° E 22:22:53 46° E 22:25:12 10° ENE
Cosmos 1782 4.1 22:18:38 10° N 22:22:12 31° ENE 22:23:34 24° ESE
Cosmos 2344 3.5 22:16:02 14° SW 22:22:41 83° SE 22:30:53 10° NE
Cosmos 2219 Rocket 4.2 22:18:15 10° WSW 22:22:53 26° NW 22:27:34 10° N
Cosmos 1346 Rocket 3.7 22:28:04 32° ESE 22:28:46 34° E 22:32:22 10° NNE
Thor Agena Rocket 4.3 22:25:03 10° N 22:29:58 48° WNW 22:33:18 19° SW
DELTA 2 R/B (1) 4.4 22:26:26 10° WSW 22:36:22 10° ESE 22:36:24 10° ESE
Cosmos 2333 Rocket 4.5 22:28:49 10° W 22:33:15 23° NW 22:37:44 10° N
RESURS DK-1 4.2 22:36:36 10° N 22:40:09 27° NE 22:43:23 12° ESE
Cosmos 1515 Rocket 3.6 22:37:28 10° N 22:41:50 72° E 22:43:15 41° SSE
BREEZE-M DEB (TANK) 2.9 22:39:37 10° WNW 22:41:22 25° W 22:41:22 25° W
ATLAS 2AS CENTAUR R/B 3.3 22:36:21 10° NW 22:43:23 45° WSW 22:46:25 29° SSW
Cosmos 1766 Rocket 3.9 22:44:24 35° SW 22:46:03 59° WNW 22:50:25 10° N
USA 215 4.1 22:41:54 10° NE 22:48:12 51° NNW 22:54:29 10° W
Okean 3 Rocket 4.2 22:47:02 29° SW 22:48:55 48° WNW 22:53:14 10° N
Gbstr 26 Del rocket 3.2 22:49:28 41° SE 22:49:28 41° SE 22:53:08 10° ENE
Cosmos 1328 Rocket 3.7 22:44:56 10° NNW 22:49:11 58° W 22:50:25 41° SSW
Aureole 2 Rocket 3.5 22:47:00 10° NW 22:48:59 26° W 22:48:59 26° W
Cosmos 1606 3.5 22:47:50 10° NNW 22:51:29 39° W 22:52:19 34° SW
Cosmos 2278 Rocket 4.1 22:49:23 10° WNW 22:52:50 17° W 22:54:59 14° SW
Cosmos 2218 Rocket 4.1 22:50:54 29° SSW 22:54:19 75° W 23:00:40 10° N
Cosmos 2297 4.0 22:49:25 10° NW 22:54:59 52° WSW 22:57:11 34° SSW
Cosmos 304 Rocket 3.9 22:51:01 10° NNW 22:55:52 71° ENE 22:58:04 32° SE
Cosmos 2228 Rocket 3.5 22:52:58 10° N 22:57:31 58° ENE 22:59:19 34° SE
Cosmos 1943 4.4 22:56:06 23° SE 22:58:03 29° ESE 23:02:50 10° NE
Cosmos 1420 Rocket 4.3 22:53:35 10° NNW 22:58:43 53° WSW 23:00:36 35° SSW
Cosmos 2366 rocket 4.1 22:56:35 29° SSW 23:00:01 72° W 23:06:24 10° N
Cosmos 1633 2.5 23:01:11 59° SSE 23:01:45 77° E 23:05:23 10° NNE
Cosmos 1943 Rocket 2.1 22:56:04 10° NNW 23:01:47 89° WSW 23:04:40 30° SSE
Lacrosse 5 rocket 2.2 22:58:10 10° NW 23:02:03 46° NNE 23:05:44 10° ESE
Landsat 4 3.7 22:59:25 10° NNE 23:03:12 72° ESE 23:03:59 53° SSE
SL-16 R/B 2.4 23:00:47 25° SW 23:04:09 70° WNW 23:09:51 10° NNE
Cosmos 1821 Rocket 4.2 23:05:52 30° SSE 23:08:53 60° E 23:14:53 10° NNE
YAOGAN 11 4.2 23:09:09 43° SSW 23:10:26 65° WSW 23:14:51 10° NNW
Cosmos 1743 Rocket 3.4 23:12:36 45° S 23:13:55 86° ESE 23:18:17 10° N
Sich 1 4.2 23:15:28 25° SE 23:16:59 32° E 23:20:51 10° NNE
Cosmos 332 Rocket 4.1 23:15:26 10° NNW 23:20:04 49° WSW 23:21:28 37° SSW
Cosmos 1331 Rocket 4.3 23:15:06 10° NNW 23:20:25 66° ENE 23:23:39 24° SE
Cosmos 1048 Rocket 4.0 23:19:32 36° SSW 23:21:47 80° ESE 23:27:04 10° NNE
Meteor 2-3 Rocket 4.1 23:21:02 27° SW 23:23:57 55° WNW 23:29:35 10° N
Helios 1A 3.8 23:24:53 31° SW 23:25:47 35° W 23:29:38 10° NNW
Meteor 1-29 3.6 23:25:27 10° NNE 23:28:41 41° E 23:29:10 38° ESE
Cosmos 405 3.4 23:25:20 10° NNW 23:28:45 46° W 23:29:08 44° WSW
Meteor 1-10 Rocket 4.2 23:27:17 10° N 23:32:54 81° ENE 23:35:50 29° SSE
Cosmos 1452 Rocket 4.2 23:28:32 10° NW 23:33:25 40° WSW 23:35:06 31° SW
PSLV R/B 3.5 23:30:53 10° NNE 23:35:07 82° WNW 23:36:34 41° SSW
CZ-4C R/B 3.0 23:28:08 10° NW 23:35:16 85° NE 23:43:32 10° SE
Meteor 2-6 Rocket 4.1 23:29:49 10° NNW 23:35:20 82° W 23:37:54 32° S
Cosmos 389 Rocket 3.9 23:32:19 10° N 23:35:33 32° ENE 23:37:05 22° ESE
Cosmos 1340 4.3 23:34:23 20° WSW 23:35:44 25° WNW 23:38:56 10° NNW
COSMOS 2455 3.1 23:29:56 10° NW 23:35:47 52° WSW 23:38:24 31° S
Cosmos 1110 Rocket 3.9 23:32:14 10° NNW 23:37:33 84° WSW 23:40:16 30° SSE
SL-16 R/B 3.5 23:31:49 10° SE 23:37:36 43° ENE 23:43:28 10° N
Cosmos 1603 3.7 23:36:25 33° S 23:39:02 70° ESE 23:44:45 10° NNE
Resurs 1-4 Rocket 3.5 23:40:59 10° NE 23:45:36 29° E 23:48:45 17° SE
Cosmos 1666 Rocket 4.3 23:44:14 28° SSE 23:46:06 44° E 23:50:18 10° NNE
Cosmos 2369 Rocket 2.3 23:40:44 10° NW 23:46:14 60° WSW 23:48:49 31° S
Cosmos 1500 Rocket 4.2 23:44:49 31° SW 23:46:30 47° WNW 23:50:45 10° N
SeaSat 1 3.3 23:44:43 10° NE 23:49:18 37° ESE 23:51:20 26° SSE
ISS -2.5 23:51:00 27° ESE 23:51:00 27° ESE 23:53:22 10° E
Helios 1B rocket 2.6 23:49:47 10° N 23:53:52 62° WNW 23:55:23 36° SW
ADEOS II 4.4 23:53:43 10° NE 23:56:42 15° E 23:59:41 10° ESE
